SDM6876 URSS-UNKL

Flight info

Callsign SDM6876
Flight time N/A
Altitude 33000
Route IRGID1S IRGID A944 GUBOR G487 OBATA L988 KODUM/K0841F350 L988 ALABA T586 DAKIN G828 NN A300 RANET RANET2S
Aircraft B738/M-SDE2E3FGHIRWXY/LB1

Departure

Time N/A
Airport Sochi International Airport (URSS)

Arrival

Time 2026-04-27 15:53
Airport Krasnoyarsk International Airport (UNKL)
Time Latitude Longitude Altitude Speed Heading
2026-04-27 15:30 56.05363 90.52243 28240 ft 304 kts 266°
2026-04-27 15:31 56.05509 90.48469 27892 ft 302 kts 266°
2026-04-27 15:31 56.05815 90.44746 27517 ft 311 kts 279°
2026-04-27 15:31 56.06753 90.41169 27136 ft 323 kts 291°
2026-04-27 15:31 56.08050 90.37846 26791 ft 329 kts 298°
2026-04-27 15:32 56.09635 90.34808 26399 ft 339 kts 307°
2026-04-27 15:32 56.11569 90.32251 26035 ft 352 kts 320°
2026-04-27 15:32 56.13825 90.30496 25689 ft 367 kts 334°
2026-04-27 15:32 56.16418 90.29740 25324 ft 381 kts 351°
2026-04-27 15:33 56.19065 90.30190 24962 ft 393 kts
2026-04-27 15:33 56.21636 90.31890 24778 ft 394 kts 25°
2026-04-27 15:33 56.23890 90.34686 24484 ft 395 kts 42°
2026-04-27 15:33 56.25672 90.38410 24146 ft 392 kts 60°
2026-04-27 15:34 56.26878 90.42743 23910 ft 384 kts 75°
2026-04-27 15:34 56.27571 90.47319 23651 ft 374 kts 90°
2026-04-27 15:34 56.27647 90.51900 23404 ft 361 kts 103°
2026-04-27 15:34 56.27452 90.56391 23157 ft 359 kts 103°
2026-04-27 15:35 56.27250 90.60883 22904 ft 360 kts 103°
2026-04-27 15:35 56.27175 90.65495 22694 ft 382 kts 96°
2026-04-27 15:35 56.27279 90.70428 22480 ft 407 kts 93°
2026-04-27 15:35 56.27447 90.75660 22272 ft 430 kts 92°
2026-04-27 15:36 56.27624 90.81159 22045 ft 451 kts 92°
2026-04-27 15:36 56.27790 90.86923 21814 ft 470 kts 92°
2026-04-27 15:36 56.27942 90.92901 21575 ft 484 kts 92°
2026-04-27 15:36 56.28086 90.98936 21314 ft 482 kts 92°
2026-04-27 15:37 56.28219 91.04960 21061 ft 481 kts 93°
2026-04-27 15:37 56.28343 91.10948 20830 ft 476 kts 93°
2026-04-27 15:37 56.28302 91.16787 20552 ft 459 kts 101°
2026-04-27 15:37 56.27891 91.22452 19819 ft 456 kts 105°
2026-04-27 15:38 56.27357 91.28080 19049 ft 456 kts 106°
2026-04-27 15:38 56.26810 91.33696 18412 ft 454 kts 105°
2026-04-27 15:38 56.26293 91.39285 17849 ft 450 kts 105°
2026-04-27 15:38 56.25811 91.44830 17192 ft 448 kts 104°
2026-04-27 15:39 56.25348 91.50361 16493 ft 447 kts 104°
2026-04-27 15:39 56.24893 91.55880 15772 ft 445 kts 103°
2026-04-27 15:39 56.24436 91.61375 15024 ft 444 kts 103°
2026-04-27 15:39 56.23986 91.66866 14276 ft 444 kts 101°
2026-04-27 15:40 56.24041 91.72381 13514 ft 440 kts 82°
2026-04-27 15:40 56.24716 91.77596 13313 ft 421 kts 79°
2026-04-27 15:40 56.25361 91.82685 13050 ft 414 kts 80°
2026-04-27 15:40 56.25961 91.87763 12733 ft 415 kts 81°
2026-04-27 15:41 56.26530 91.92769 12177 ft 415 kts 81°
2026-04-27 15:41 56.27096 91.97850 11541 ft 414 kts 80°
2026-04-27 15:41 56.27655 92.02885 11244 ft 404 kts 80°
2026-04-27 15:41 56.28199 92.07785 10986 ft 394 kts 80°
2026-04-27 15:42 56.28728 92.12558 10785 ft 383 kts 79°
2026-04-27 15:42 56.29241 92.17201 10592 ft 372 kts 79°
2026-04-27 15:42 56.29495 92.21763 10144 ft 367 kts 94°
2026-04-27 15:42 56.29167 92.26277 10005 ft 354 kts 100°
2026-04-27 15:43 56.28826 92.30590 9924 ft 341 kts 98°
2026-04-27 15:43 56.28544 92.34715 9806 ft 325 kts 98°
2026-04-27 15:43 56.28285 92.38673 9712 ft 311 kts 97°
2026-04-27 15:43 56.28044 92.42452 9599 ft 295 kts 97°
2026-04-27 15:44 56.27818 92.45996 9518 ft 275 kts 97°
2026-04-27 15:44 56.27605 92.49311 9371 ft 259 kts 97°
2026-04-27 15:44 56.27404 92.52428 9193 ft 245 kts 97°
2026-04-27 15:44 56.27208 92.55449 8837 ft 240 kts 96°
2026-04-27 15:45 56.27011 92.58419 8437 ft 238 kts 96°
2026-04-27 15:45 56.26815 92.61381 8032 ft 238 kts 96°
2026-04-27 15:45 56.26624 92.64299 7729 ft 230 kts 96°
2026-04-27 15:45 56.26439 92.67048 7599 ft 214 kts 98°
2026-04-27 15:46 56.25986 92.69564 7234 ft 211 kts 117°
2026-04-27 15:46 56.25363 92.71969 6869 ft 212 kts 115°
2026-04-27 15:46 56.24768 92.74388 6569 ft 211 kts 114°
2026-04-27 15:46 56.24182 92.76800 6270 ft 210 kts 114°
2026-04-27 15:47 56.23602 92.79201 5970 ft 209 kts 113°
2026-04-27 15:47 56.23023 92.81592 5653 ft 208 kts 115°
2026-04-27 15:47 56.22121 92.83552 5305 ft 204 kts 154°
2026-04-27 15:47 56.20807 92.84059 5011 ft 189 kts 192°
2026-04-27 15:48 56.19557 92.83429 4661 ft 184 kts 208°
2026-04-27 15:48 56.18395 92.82528 4454 ft 178 kts 209°
2026-04-27 15:48 56.17252 92.81623 4354 ft 181 kts 209°
2026-04-27 15:49 56.14905 92.79785 4183 ft 185 kts 208°
2026-04-27 15:49 56.13728 92.78872 4055 ft 185 kts 208°
2026-04-27 15:49 56.12559 92.77890 3848 ft 185 kts 219°
2026-04-27 15:49 56.11778 92.76177 3663 ft 175 kts 250°
2026-04-27 15:50 56.11565 92.74087 3457 ft 170 kts 275°
2026-04-27 15:50 56.11870 92.72138 3310 ft 156 kts 294°
2026-04-27 15:50 56.12300 92.70426 3104 ft 150 kts 292°
2026-04-27 15:50 56.12710 92.68707 2913 ft 150 kts 292°
2026-04-27 15:51 56.13114 92.66993 2724 ft 149 kts 292°
2026-04-27 15:51 56.13523 92.65257 2520 ft 152 kts 292°
2026-04-27 15:51 56.13935 92.63509 2321 ft 154 kts 292°
2026-04-27 15:51 56.14354 92.61737 2123 ft 154 kts 292°
2026-04-27 15:52 56.14770 92.59972 1900 ft 153 kts 292°
2026-04-27 15:52 56.15188 92.58222 1712 ft 151 kts 293°
2026-04-27 15:52 56.15606 92.56485 1467 ft 150 kts 294°
2026-04-27 15:52 56.16015 92.54773 1302 ft 151 kts 292°
2026-04-27 15:53 56.16418 92.53024 1131 ft 152 kts 293°
2026-04-27 15:53 56.16836 92.51274 961 ft 148 kts 293°
2026-04-27 15:53 56.17197 92.49749 953 ft 112 kts 293°
2026-04-27 15:53 56.17426 92.48816 952 ft 45 kts 302°
2026-04-27 15:54 56.17578 92.48599 952 ft 15 kts 324°
2026-04-27 15:54 56.17654 92.48490 955 ft 14 kts 319°
2026-04-27 15:54 56.17726 92.48410 952 ft 12 kts 338°
2026-04-27 15:54 56.17803 92.48435 953 ft 12 kts 23°
2026-04-27 15:55 56.17876 92.48491 953 ft 11 kts 22°
2026-04-27 15:55 56.17923 92.48525 952 ft 8 kts 22°
2026-04-27 15:55 56.17946 92.48543 956 ft 0 kts 23°